Location: Unspecified
(57.6483°N, 3.3184°W)
Time: 00:51:46
(UTC+00:00)

BlueWalker 3 - Visible Passes

Search period start: 25 January 2026 00:00
Search period end: 04 February 2026 00:00
Orbit: 451 x 462 km, 53.2° (Epoch: 24 January)

Date Brightness Start Highest point End Pass type
(mag) Time Alt. Az. Time Alt. Az. Time Alt. Az.
25 Jan 3.5 18:14:26 10° SSW 18:17:03 19° SSE 18:18:02 17° SE visible
25 Jan 4.2 19:50:37 10° WSW 19:51:46 18° SW 19:51:46 18° SW visible
26 Jan 3.8 17:39:17 10° S 17:41:40 17° SSE 17:44:01 10° ESE visible
26 Jan 3.0 19:15:12 10° SW 19:17:45 32° SSW 19:17:45 32° SSW visible
27 Jan 2.7 18:39:47 10° SW 18:43:02 33° SSE 18:43:41 31° SE visible
27 Jan 4.7 20:16:44 10° WSW 20:17:24 14° WSW 20:17:24 14° WSW visible
28 Jan 3.0 18:04:22 10° SW 18:07:33 31° SSE 18:09:34 18° ESE visible
28 Jan 3.5 19:41:14 10° WSW 19:43:18 28° SW 19:43:18 28° SW visible
29 Jan 3.2 17:28:57 10° SW 17:32:04 28° SSE 17:35:10 10° E visible
29 Jan 2.5 19:05:43 10° WSW 19:09:05 41° S 19:09:10 41° S visible
30 Jan 2.6 18:30:10 10° WSW 18:33:33 41° S 18:35:01 26° SE visible
30 Jan 4.3 20:07:24 10° W 20:08:45 19° WSW 20:08:45 19° WSW visible
31 Jan 2.7 17:54:37 10° WSW 17:57:59 40° S 18:00:52 13° ESE visible
31 Jan 3.1 19:31:48 10° W 19:34:36 32° SSW 19:34:36 32° SSW visible
1 Feb 2.8 17:19:04 10° WSW 17:22:25 38° S 17:25:46 10° ESE visible
1 Feb 2.9 18:56:12 10° W 18:59:29 35° SSW 19:00:27 29° SSE visible
1 Feb 4.9 20:33:56 10° WSW 20:34:11 11° WSW 20:34:11 11° WSW visible
2 Feb 2.8 18:20:34 10° WSW 18:23:54 38° S 18:26:21 16° SE visible
2 Feb 4.1 19:58:10 10° WSW 20:00:04 18° SW 20:00:04 18° SW visible
3 Feb 2.9 17:44:55 10° WSW 17:48:17 39° S 17:51:38 10° ESE visible
3 Feb 3.7 19:22:24 10° WSW 19:25:12 22° SSW 19:26:00 20° S visible
